Location: Newark
(40.3500°N, 15.2333°E)
Time: 21:00:36
(UTC+00:00)

Vanguard 1 - Pass Details

Date: 27 January 2020
Orbit: 650 x 3833 km, 34.2° (Epoch: 25 February)

Event Time Altitude Azimuth Distance (km) Brightness Sun altitude
Rises 20:34:36 0° 264° (W) 3,381 13.4 -49.8°
Enters shadow 20:35:56 - 257° (WSW) 3,023 13.0 -50.1°
Reaches altitude 10° 20:37:23 10° 246° (WSW) 2,708 - -50.3°
Maximum altitude 20:42:02 20° 200° (SSW) 2,516 - -51.1°
Drops below altitude 10° 20:48:37 10° 157° (SSE) 4,010 - -52.3°
Sets 20:54:03 0° 144° (SE) 5,647 - -53.2°
